YAHSAT 1A

Last updated on Sat Aug 22 2026 00:02:57 GMT+0000 (Coordinated Universal Time)

1 37393U 11016B 26233.20750532 .00000099 00000+0 00000+0 0 9990 2 37393 0.0116 109.6359 0002742 16.9474 330.1322 1.00272410 43068
UTC large
Height (km)
Speed (km/s)
/
Latitude / Longitude
Inclination (degrees)
Orbital Period (minutes)
Azimuth
Elevation
Range (km)
Doppler Factor

Next 0 passes for location: London (51.5072 / 0.1276)

No passes found over London.
YAHSAT 1A